Location: Washington
(38.8950°N, 77.0370°W)
Time: 11:44:44
(UTC-05:00)

IDEFIX/ARIANE 42P - Visible Passes

Search period start: 04 March 2015 00:00
Search period end: 14 March 2015 01:00
Orbit: 786 x 803 km, 98.3° (Epoch: 03 March)

Date Brightness Start Highest point End Pass type
(mag) Time Alt. Az. Time Alt. Az. Time Alt. Az.
04 Mar 3.6 19:51:31 10° S 19:56:33 46° W 20:01:37 10° NNW visible
05 Mar 2.6 19:23:01 10° SSE 19:28:18 86° WSW 19:33:36 10° NNW visible
06 Mar 2.7 18:55:04 10° SSE 19:00:08 52° ENE 19:05:15 10° N visible
06 Mar 5.2 20:36:30 10° SW 20:40:08 18° W 20:43:34 10° NW visible
07 Mar 3.4 18:27:40 10° SE 18:32:05 29° ENE 18:36:35 10° N visible
07 Mar 4.2 20:06:53 10° SSW 20:11:37 33° W 20:16:20 10° NNW visible
08 Mar 3.1 20:38:04 10° S 20:43:17 62° W 20:48:30 10° NNW visible
09 Mar 2.5 20:09:50 10° SSE 20:15:04 73° ENE 20:20:19 10° N visible
09 Mar 5.5 21:52:59 10° WSW 21:55:20 12° W 21:57:22 10° WNW visible
10 Mar 3.0 19:42:07 10° SE 19:46:57 39° ENE 19:51:50 10° N visible
10 Mar 4.8 21:22:29 10° SSW 21:26:44 24° W 21:30:52 10° NW visible
11 Mar 3.7 20:53:18 10° S 20:58:18 44° W 21:03:18 10° NNW visible
12 Mar 2.7 20:24:45 10° S 20:30:01 82° WSW 20:35:18 10° NNW visible
13 Mar 2.7 19:56:45 10° SSE 20:01:51 55° ENE 20:06:59 10° N visible
13 Mar 5.2 21:38:26 10° SW 21:41:53 17° W 21:45:07 10° NW visible
